Weather History for KMMK - October, 2013

Change the Weather History Date:

Monday, October 7, 2013

  Actual Average (KHVN) Record (KHVN)
Temperature  
Mean Temperature 68 °F -  
Max Temperature 75 °F 63 °F 88 °F (1990)
Min Temperature 59 °F 47 °F 35 °F (1984)
Cooling Degree Days 2    
Growing Degree Days 18 (Base 50)    
Moisture  
Dew Point 62 °F    
Average Humidity 88    
Maximum Humidity 100    
Minimum Humidity 73    
Precipitation  
Precipitation 0.40 in - - ()
Sea Level Pressure  
Sea Level Pressure 29.94 in    
Wind  
Wind Speed 5 mph (SSW)    
Max Wind Speed 23 mph    
Max Gust Speed 33 mph    
Visibility 6 miles    
Events Rain    
Averages and records for this station are not official NWS values.
T = Trace of Precipitation, MM = Missing Value Source: NWS Daily Summary

Daily Weather History Graph

Daily Weather History Graph

Search for Another Location

Airport or City:

Trip Planner

Search our weather history database for the weather conditions in past years. The results will help you decide how hot, cold, wet, or windy it might be!

Date:

Astronomy

Oct. 07, 2013 Rise Set
Actual Time 6:54 AM EDT 6:22 PM EDT
Civil Twilight 6:27 AM EDT 6:50 PM EDT
Nautical Twilight 5:54 AM EDT 7:22 PM EDT
Astronomical Twilight 5:22 AM EDT 7:54 PM EDT
Moon 9:43 AM EDT (10/7) 8:02 PM EDT (10/7)
Length of Visible Light 12h 23m
Length of Day
11h 27m
Waxing Crescent, 8% of the Moon is Illuminated
Oct 7
Waxing Crescent
Oct 11
First Quarter
Oct 18
Full
Oct 26
Last Quarter
Nov 3
New

Hourly Weather History & Observations

Time (EDT) Temp. Dew Point Humidity Pressure Visibility Wind Dir Wind Speed Gust Speed Precip Events Conditions
12:43 AM 60.8 °F 60.8 °F 100% 30.08 in 4.0 mi Calm Calm - N/A   Overcast
12:53 AM 61.0 °F 60.1 °F 97% 30.08 in 3.0 mi Calm Calm - N/A   Overcast
1:04 AM 60.8 °F 59.0 °F 94% 30.08 in 2.5 mi Calm Calm - N/A   Overcast
1:16 AM 60.8 °F 59.0 °F 94% 30.08 in 1.5 mi Calm Calm - N/A   Overcast
1:53 AM 61.0 °F 60.1 °F 97% 30.06 in 1.0 mi North 3.5 mph - N/A   Overcast
2:23 AM 60.8 °F 60.8 °F 100% 30.05 in 2.0 mi Calm Calm - N/A   Overcast
2:41 AM 60.8 °F 59.0 °F 94% 30.05 in 4.0 mi Calm Calm - N/A   Overcast
2:53 AM 61.0 °F 59.0 °F 93% 30.04 in 4.0 mi Calm Calm - N/A   Overcast
3:53 AM 61.0 °F 59.0 °F 93% 30.03 in 2.5 mi Calm Calm - N/A   Overcast
4:07 AM 60.8 °F 59.0 °F 94% 30.02 in 1.5 mi North 3.5 mph - N/A   Overcast
4:39 AM 60.8 °F 59.0 °F 94% 30.02 in 0.8 mi Calm Calm - N/A   Mist
4:53 AM 60.1 °F 59.0 °F 96% 30.02 in 0.8 mi NW 3.5 mph - N/A   Mist
5:05 AM 60.8 °F 59.0 °F 94% 30.01 in 1.0 mi Calm Calm - N/A   Mist
5:28 AM 60.8 °F 59.0 °F 94% 30.01 in 3.0 mi Calm Calm - N/A   Overcast
5:53 AM 60.1 °F 57.9 °F 93% 30.01 in 4.0 mi NNW 4.6 mph - N/A   Overcast
6:53 AM 60.1 °F 57.9 °F 93% 29.99 in 7.0 mi NW 3.5 mph - N/A   Overcast
7:53 AM 60.1 °F 57.9 °F 93% 29.98 in 7.0 mi Calm Calm - 0.00 in   Overcast
8:00 AM 60.8 °F 57.2 °F 88% 29.98 in 7.0 mi Calm Calm - N/A   Overcast
8:24 AM 60.8 °F 59.0 °F 94% 29.97 in 7.0 mi Variable 3.5 mph - N/A   Overcast
8:37 AM 62.6 °F 60.8 °F 94% 29.97 in 6.0 mi Calm Calm - N/A   Overcast
8:53 AM 64.0 °F 62.1 °F 93% 29.97 in 6.0 mi Calm Calm - N/A   Overcast
9:53 AM 70.0 °F 66.9 °F 90% 29.95 in 8.0 mi South 5.8 mph - N/A   Overcast
10:13 AM 71.6 °F 68.0 °F 88% 29.94 in 10.0 mi SSE 11.5 mph - N/A   Overcast
10:53 AM 73.0 °F 68.0 °F 84% 29.93 in 10.0 mi South 13.8 mph 21.9 mph N/A   Overcast
11:23 AM 73.4 °F 68.0 °F 83% 29.91 in 10.0 mi SSE 13.8 mph 21.9 mph N/A   Overcast
11:53 AM 75.0 °F 66.9 °F 76% 29.90 in 10.0 mi SSE 15.0 mph 21.9 mph N/A   Overcast
12:53 PM 75.0 °F 66.9 °F 76% 29.86 in 10.0 mi South 18.4 mph 29.9 mph N/A   Overcast
1:53 PM 75.9 °F 66.9 °F 74% 29.82 in 10.0 mi South 17.3 mph 31.1 mph N/A   Overcast
2:53 PM 73.9 °F 66.9 °F 79% 29.82 in 10.0 mi South 16.1 mph 24.2 mph N/A   Overcast
3:51 PM 75.2 °F 66.2 °F 73% 29.80 in 10.0 mi South 23.0 mph 33.4 mph 0.00 in Rain Light Rain
3:53 PM 75.0 °F 66.9 °F 76% 29.81 in 10.0 mi South 15.0 mph 33.4 mph 0.00 in Rain Light Rain
4:00 PM 73.4 °F 66.2 °F 78% 29.81 in 10.0 mi South 21.9 mph 29.9 mph 0.00 in Rain Light Rain
4:53 PM 73.0 °F 66.9 °F 81% 29.81 in 9.0 mi South 16.1 mph 32.2 mph 0.01 in Rain Light Rain
5:25 PM 71.6 °F 66.2 °F 83% 29.82 in 1.5 mi WSW 16.1 mph 24.2 mph 0.01 in Rain Light Rain
5:30 PM 69.8 °F 64.4 °F 83% 29.83 in 0.8 mi SSW 11.5 mph 31.1 mph 0.03 in Rain Heavy Rain
5:40 PM 69.8 °F 64.4 °F 83% 29.84 in 2.0 mi South 12.7 mph 28.8 mph 0.08 in Rain Rain
5:44 PM 68.0 °F 64.4 °F 88% 29.84 in 1.5 mi SSW 15.0 mph 21.9 mph 0.11 in Rain Heavy Rain
5:53 PM 68.0 °F 64.0 °F 87% 29.85 in 1.5 mi SSW 13.8 mph 23.0 mph 0.16 in Rain Light Rain
6:03 PM 66.2 °F 64.4 °F 94% 29.83 in 3.0 mi South 9.2 mph - 0.06 in Rain Light Rain
6:53 PM 66.0 °F 63.0 °F 90% 29.86 in 10.0 mi South 9.2 mph - 0.23 in Rain Light Rain
7:53 PM 66.0 °F 63.0 °F 90% 29.88 in 7.0 mi SW 5.8 mph - 0.00 in Rain Light Rain
8:00 PM 66.2 °F 62.6 °F 88% 29.89 in 7.0 mi Variable 6.9 mph - 0.00 in Rain Light Rain
8:17 PM 64.4 °F 60.8 °F 88% 29.89 in 10.0 mi Variable 4.6 mph - 0.00 in   Overcast
8:53 PM 64.0 °F 59.0 °F 84% 29.89 in 10.0 mi WNW 5.8 mph - 0.00 in   Overcast
9:53 PM 62.1 °F 55.0 °F 78% 29.91 in 10.0 mi WNW 4.6 mph - N/A   Overcast
10:53 PM 61.0 °F 53.1 °F 75% 29.93 in 10.0 mi North 4.6 mph - N/A   Overcast
11:53 PM 59.0 °F 53.1 °F 81% 29.94 in 10.0 mi WNW 5.8 mph - N/A   Scattered Clouds